Terminal Aerodrome Forecast
Issued by NWS

Current Version | Previous Version | Graphics & Text | Print | Product List | Glossary On
Versions: 1 2 3 4 5 6 7 8 9 10 11 12 13 14 15 16 17 18 19 20 21 22 23 24 25 26 27 28 29 30 31
146
FTUS41 KPBZ 222358 CCA
TAFMGW
TAF COR
KMGW 222358Z 2300/2324 04003KT 3SM BR OVC002
      TEMPO 2300/2302 2SM BR OVC001
     FM230300 08005KT P6SM OVC010
     FM231100 12006KT 3SM -RA BR OVC010
     FM231700 20009KT 3SM -SHRA BR OVC015
     FM232300 23008KT P6SM -SHRA OVC035=

USA.gov is the U.S. government's official web portal to all federal, state and local government web resources and services.